Port Orford, OR

4:47 AM PDT on October 24, 2014 (GMT -0700)
Port Orford RV Village | Change Station
CLOSE
Current Station
Personal Weather Station
Location: Port Orford, OR
Elevation: 47 ft
Nearby Weather Stations

Elev 47 ft 42.76 °N, 124.49 °W | Updated 4 seconds ago

Rain
Rain
55.8 °F
Feels Like 55.8 °F
N
0.0
Wind Variable Wind from East
Gusts 0.0 mph

Today
High -- | Low -- °F
--% Chance of Precip.
Yesterday
High -- | Low -- °F
Precip. -- in
7:42 AM 6:21 PM
New Moon, 0% visible
Pressure 29.97 in
Visibility 10.0 miles
Clouds Scattered Clouds 8000 ft
Scattered Clouds 12000 ft
Dew Point 55 °F
Humidity 98%
Rainfall 0.05 in
Snow Depth Not available.
UV 0 out of 12
Pollen .40 out of 12
Air Quality Not available.
Flu Activity Sporadic
METAR KOTH 241135Z 15005KT 10SM SCT080 SCT120 12/12 A2997 RMK AO1

More Conditions Fewer Conditions

Pressure 29.97 in
Visibility 10.0 miles
Clouds Scattered Clouds 8000 ft
Scattered Clouds 12000 ft
Dew Point 55 °F
Humidity 98%
Rainfall 0.05 in
Snow Depth Not available.
UV 0 out of 12
Pollen .40 out of 12
Air Quality Not available.
Flu Activity Sporadic
METAR KOTH 241135Z 15005KT 10SM SCT080 SCT120 12/12 A2997 RMK AO1

More Conditions Fewer Conditions

10-Day Weather Forecast

Almanac

Astronomy

Oct. 24, 2014 Rise Set
Actual Time 7:42 AM PDT 6:21 PM PDT
Civil Twilight 7:13 AM PDT 6:50 PM PDT
Nautical Twilight 6:40 AM PDT 7:23 PM PDT
Astronomical Twilight 6:07 AM PDT 7:55 PM PDT
Moon 8:27 AM PDT 7:04 PM PDT
Length of Visible Light 11h 37m
Length of Day
10h 39m
Tomorrow will be 2m 42s shorter.
New Moon, 0% of the Moon is Illuminated
Today
New Moon
Oct 30
First Quarter
Nov 6
Full
Nov 14
Last Quarter
Nov 22
New

Today's Extremes

State Highs State Lows

Community

WunderPhotos

Upload Photos

1,764,526 photos uploaded!

Nearby

Snow Depth

Station Depth Elevation
Bigelow Camp 0 in 5120 ft
Big Red Mountain 0 in 6250 ft
Fish Lake 0 in 4665 ft
Billie Creek Divide 0 in 5300 ft
Holland Meadows 0 in 4900 ft

Earthquake Activity

City Distance Mag. Time & Date
No recent earthquake activity has been reported nearby.
Minimum magnitude displayed is 2.5.

Coastal Water Temperatures

Place Temperature
Port Orford, OR 59.0 °F
Crescent City, CA 60.1 °F
Charleston, OR 59.0 °F

Nearby Weather Stations